Location: Unspecified
(0.0000°N, 0.0000°E)
Time: 16:18:16
(UTC+00:00)

Vanguard 3 - Pass Details

Date: 26 November 2019
Orbit: 508 x 3263 km, 33.3° (Epoch: 12 December)

Event Time Altitude Azimuth Distance (km) Brightness Sun altitude
Rises 19:19:36 0° 309° (NW) 6,712 12.2 -21.5°
Reaches altitude 10° 19:24:40 10° 311° (NW) 5,356 11.6 -22.6°
Maximum altitude 19:39:08 72° 33° (NNE) 1,787 8.6 -26.0°
Enters shadow 19:42:58 40° 106° (ESE) 2,024 8.7 -26.8°
Drops below altitude 10° 19:47:02 10° 117° (ESE) 3,080 - -27.8°
Sets 19:49:12 0° 119° (ESE) 3,782 - -28.3°
